Weather Data

Pearl Creek Farm: 8878 N Farm Road 75, Walnut Grove MO 65770

<== Previous Day (Monday 20 Jan 2014) | Next Day (Wednesday 22 Jan 2014) ==>

Summary Precipitation Data For Tuesday 21 January 2014

ElementValueUnits
Precipitation0"
Notes(none)
SourcePearl Creek Farm

Summary Temperature Data For Tuesday 21 January 2014

ElementValueUnits
High Temperature35 oF
Low Temperature13 oF
Average Temperature21 oF
High Humidity70 %
Low Humidity45 %
Average Humidity60 %
SourcePearl Creek Farm

Detail Temperature Data For Tuesday 21 January 2014

Date / TimeTemp (F)RH (%)Dew Pt (F)Report Date / TimeSource
2014-01-21 00:00:00 35 58 21.6 2014-02-09 14:43:36 Pearl Creek Farm
2014-01-21 00:30:00 33 61 20.9 2014-02-09 14:43:36 Pearl Creek Farm
2014-01-21 01:00:00 30 61 18.0 2014-02-09 14:43:36 Pearl Creek Farm
2014-01-21 01:30:00 29 63 18.0 2014-02-09 14:43:36 Pearl Creek Farm
2014-01-21 02:00:00 28 65 17.6 2014-02-09 14:43:36 Pearl Creek Farm
2014-01-21 02:30:00 27 65 16.7 2014-02-09 14:43:36 Pearl Creek Farm
2014-01-21 03:00:00 26 63 15.2 2014-02-09 14:43:36 Pearl Creek Farm
2014-01-21 03:30:00 23 61 11.4 2014-02-09 14:43:36 Pearl Creek Farm
2014-01-21 04:00:00 21 65 11.0 2014-02-09 14:43:36 Pearl Creek Farm
2014-01-21 04:30:00 20 65 10.2 2014-02-09 14:43:36 Pearl Creek Farm
2014-01-21 05:00:00 18 65 8.3 2014-02-09 14:43:36 Pearl Creek Farm
2014-01-21 05:30:00 17 65 7.1 2014-02-09 14:43:36 Pearl Creek Farm
2014-01-21 06:00:00 17 66 7.6 2014-02-09 14:43:36 Pearl Creek Farm
2014-01-21 06:30:00 16 66 6.5 2014-02-09 14:43:36 Pearl Creek Farm
2014-01-21 07:00:00 15 66 5.6 2014-02-09 14:43:36 Pearl Creek Farm
2014-01-21 07:30:00 13 68 4.5 2014-02-09 14:43:36 Pearl Creek Farm
2014-01-21 08:00:00 13 70 4.9 2014-02-09 14:43:36 Pearl Creek Farm
2014-01-21 08:30:00 13 68 4.5 2014-02-09 14:43:36 Pearl Creek Farm
2014-01-21 09:00:00 13 69 4.6 2014-02-09 14:43:36 Pearl Creek Farm
2014-01-21 09:30:00 14 67 4.9 2014-02-09 14:43:36 Pearl Creek Farm
2014-01-21 10:00:00 15 65 5.2 2014-02-09 14:43:36 Pearl Creek Farm
2014-01-21 10:30:00 16 62 5.2 2014-02-09 14:43:36 Pearl Creek Farm
2014-01-21 11:00:00 17 58 4.8 2014-02-09 14:43:36 Pearl Creek Farm
2014-01-21 11:30:00 18 57 5.4 2014-02-09 14:43:36 Pearl Creek Farm
2014-01-21 12:00:00 19 53 4.5 2014-02-09 14:43:36 Pearl Creek Farm
2014-01-21 12:30:00 20 53 5.7 2014-02-09 14:43:36 Pearl Creek Farm
2014-01-21 13:00:00 21 50 5.3 2014-02-09 14:43:36 Pearl Creek Farm
2014-01-21 13:30:00 22 49 5.8 2014-02-09 14:43:36 Pearl Creek Farm
2014-01-21 14:00:00 23 48 6.1 2014-02-09 14:43:36 Pearl Creek Farm
2014-01-21 14:30:00 23 47 5.6 2014-02-09 14:43:36 Pearl Creek Farm
2014-01-21 15:00:00 24 46 6.0 2014-02-09 14:43:36 Pearl Creek Farm
2014-01-21 15:30:00 24 45 5.8 2014-02-09 14:43:36 Pearl Creek Farm
2014-01-21 16:00:00 25 45 6.7 2014-02-09 14:43:36 Pearl Creek Farm
2014-01-21 16:30:00 24 45 5.8 2014-02-09 14:43:36 Pearl Creek Farm
2014-01-21 17:00:00 24 46 6.0 2014-02-09 14:43:36 Pearl Creek Farm
2014-01-21 17:30:00 23 53 8.5 2014-02-09 14:43:36 Pearl Creek Farm
2014-01-21 18:00:00 22 58 9.5 2014-02-09 14:43:36 Pearl Creek Farm
2014-01-21 18:30:00 21 63 10.4 2014-02-09 14:43:36 Pearl Creek Farm
2014-01-21 19:00:00 20 66 10.5 2014-02-09 14:43:36 Pearl Creek Farm
2014-01-21 19:30:00 20 66 10.5 2014-02-09 14:43:36 Pearl Creek Farm
2014-01-21 20:00:00 21 66 11.3 2014-02-09 14:43:36 Pearl Creek Farm
2014-01-21 20:30:00 22 59 9.7 2014-02-09 14:43:36 Pearl Creek Farm
2014-01-21 21:00:00 23 55 9.1 2014-02-09 14:43:36 Pearl Creek Farm
2014-01-21 21:30:00 22 60 10.1 2014-02-09 14:43:36 Pearl Creek Farm
2014-01-21 22:00:00 21 63 10.3 2014-02-09 14:43:36 Pearl Creek Farm
2014-01-21 22:30:00 20 67 10.7 2014-02-09 14:43:36 Pearl Creek Farm
2014-01-21 23:00:00 20 69 11.3 2014-02-09 14:43:36 Pearl Creek Farm
2014-01-21 23:30:00 20 70 11.8 2014-02-09 14:43:36 Pearl Creek Farm

A total of 48 rows are displayed.